Orbital Elements at Epoch 2459200.5 (2020-Dec-17.0) TDB
Reference: JPL 23 (heliocentric ecliptic J2000)
Element | Value | Uncertainty (1-sigma) | Units |
e | .2484036028671161 | 3.8741e-08 | |
a | 2.360476531289905 | 9.5965e-09 | au |
q | 1.77412565643422 | 9.083e-08 | au |
i | 5.617421877929585 | 4.7052e-06 | deg |
node | 166.0964895969344 | 3.8984e-05 | deg |
peri | 166.726966804991 | 4.0391e-05 | deg |
M | 307.8008360343798 | 1.5172e-05 | deg |
tp | 2459392.569764424084 (2021-Jun-27.06976442) | 5.6738e-05 | TDB |
period | 1324.640280411603 3.63 | 8.078e-06 2.212e-08 | d yr |
n | .2717718956033391 | 1.6573e-09 | deg/d |
Q | 2.946827406145591 | 1.198e-08 | au |
|
| | Orbit Determination Parameters
Additional Information
|